Regional Weather Roundup
Issued by NWS

Home | Current Version | Previous Version | Graphics & Text | Print | Product List | Glossary On
Versions: 1 2 3 4 5 6 7 8 9 10 11 12 13 14 15 16 17 18 19 20 21 22 23 24 25 26 27 28 29 30 31 32 33 34 35 36 37 38 39 40 41 42 43 44 45 46 47 48 49 50
000
ASUS43 KOAX 192310
RWRNE

WEATHER ROUNDUP FOR NEBRASKA
NATIONAL WEATHER SERVICE OMAHA NE
600 PM CDT SAT APR 19 2014

NOTES: SATELLITE DATA IS BEING USED TO AUGMENT CLOUD COVER ABOVE
       12000 FEET.
       "FAIR" INDICATES FEW OR NO CLOUDS BELOW 12,000 FEET WITH NO
       SIGNIFICANT WEATHER AND/OR OBSTRUCTIONS TO VISIBILITY.

  * THESE STATIONS DO NOT REPORT WEATHER SUCH AS RAIN...SNOW OR FOG.

NEZ001>004-019>022-054>056-200000-
NEBRASKA PANHANDLE

CITY           SKY/WX    TMP DP  RH WIND       PRES   REMARKS
SCOTTSBLUFF    MOSUNNY   65  32  29 SE13      30.00F
ALLIANCE       SUNNY     64  29  26 SE8       30.00F
CHADRON        PTSUNNY   64  32  30 SE9       29.99F
KIMBALL        MOSUNNY   63  33  32 E8        30.00F
SIDNEY         CLOUDY    62  33  33 E15       30.01F
$$

NEZ057>060-069>072-079>082-200000-
SOUTHWEST NEBRASKA

CITY           SKY/WX    TMP DP  RH WIND       PRES   REMARKS
NORTH PLATTE   MOSUNNY   67  44  43 NE10      29.97S
IMPERIAL       PTSUNNY   70  40  33 NE14      29.99S
LEXINGTON      PTSUNNY   69  49  49 NE12      29.94F
MCCOOK         PTSUNNY   70  49  47 NE8       29.96R
OGALLALA       PTSUNNY   68  34  27 E7        29.99S
$$

NEZ005>010-023>029-035>040-094-200000-
NORTH CENTRAL NEBRASKA

CITY           SKY/WX    TMP DP  RH WIND       PRES   REMARKS
VALENTINE      PTSUNNY   65  15  14 E6        30.02F
AINSWORTH      PTSUNNY   67  26  20 E9        30.01F
BROKEN BOW     SUNNY     67  47  48 NE6       29.97F
O`NEILL        PTSUNNY   67  37  33 NE8       30.00S
ORD            MOSUNNY   69  48  47 CALM      29.96F
THEDFORD       PTSUNNY   67  31  26 E8        30.02R
$$

NEZ041-046>049-061>064-073>077-083>087-200000-
SOUTH CENTRAL NEBRASKA

CITY           SKY/WX    TMP DP  RH WIND       PRES   REMARKS
GRAND ISLAND   MOSUNNY   77  50  38 NW7       29.93F
AURORA         CLOUDY    77  50  38 S9G17     29.92F
HASTINGS       PTSUNNY   79  47  32 S10       29.90F
HEBRON         PTSUNNY   79  48  34 S17G25    29.93S
HOLDREGE       MOSUNNY   73  48  41 NE7       29.92F
KEARNEY *      MOSUNNY   73  50  43 CALM      29.94S
YORK           CLOUDY    77  50  38 S15G21    29.93S
$$

NEZ011>018-030>034-042>045-200000-
NORTHEAST NEBRASKA

CITY           SKY/WX    TMP DP  RH WIND       PRES   REMARKS
NORFOLK        CLOUDY    72  48  42 VRB3      29.96S
ALBION         MOSUNNY   72  47  40 CALM      29.96S
BLAIR          PTSUNNY   78  43  29 S16       29.96S
COLUMBUS *     PTSUNNY   73  52  46 CALM      29.95F
FREMONT        PTSUNNY   79  44  29 S10       29.94F
TEKAMAH        CLOUDY    79  45  29 S17       29.95S
$$

NEZ050>053-065>068-078-088>093-200000-
SOUTHEAST NEBRASKA

CITY           SKY/WX    TMP DP  RH WIND       PRES   REMARKS
LINCOLN        CLOUDY    79  48  33 S16       29.95S
OMAHA EPPLEY   PTSUNNY   78  44  29 S15       29.95F
BEATRICE       PTSUNNY   79  47  32 S18       29.95S
NEBRASKA CITY  MOSUNNY   78  43  28 S25       29.98F
PLATTSMOUTH    PTSUNNY   78  38  24 S16G26    29.97F
$$

NEZ044-045-051>053-067-200000-
OMAHA AREA

CITY           SKY/WX    TMP DP  RH WIND       PRES   REMARKS
OMAHA EPPLEY   PTSUNNY   78  44  29 S15       29.95F
BLAIR          PTSUNNY   78  43  29 S16       29.96S
FREMONT        PTSUNNY   79  44  29 S10       29.94F
MILLARD        CLOUDY    78  45  31 S9G18     29.95F
OFFUTT AFB     PTSUNNY   78  45  30 SE20      29.96F
PLATTSMOUTH    PTSUNNY   78  38  24 S16G26    29.97F
WAHOO          CLOUDY    78  42  28 S13G18    29.95S
$$



USA.gov is the U.S. government's official web portal to all federal, state and local government web resources and services.